Location: Leuk
(46.3174°N, 7.6341°E)
Time: 17:50:00
(UTC+00:00)

ATLAS 3B R/B - Pass Details

Date: 09 March 2021
Orbit: 1006 x 1189 km, 63.8° (Epoch: 12 April)

Event Time Altitude Azimuth Distance (km) Brightness Sun altitude
Exits shadow 03:09:26 - 321° (NW) 3,524 5.3 -28.5°
Reaches altitude 10° 03:11:33 10° 330° (NNW) 2,901 4.9 -28.1°
Maximum altitude 03:17:18 27° 28° (NNE) 1,953 4.5 -27.2°
Drops below altitude 10° 03:23:15 10° 84° (E) 3,008 6.0 -26.3°
Sets 03:26:29 0° 96° (E) 3,994 6.6 -25.8°
